Location: Clarion
(42.7316°N, 93.7330°W)
Time: 09:09:56
(UTC+00:00)

Gbstr 26 Del rocket - Pass Details

Date: 22 April 2026
Orbit: 490 x 1216 km, 51.8° (Epoch: 17 May)

Event Time Altitude Azimuth Distance (km) Brightness Sun altitude
Exits shadow 10:07:47 - 295° (WNW) 1,891 5.2 -13.3°
Reaches altitude 10° 10:08:19 10° 293° (WNW) 1,683 5.0 -13.2°
Maximum altitude 10:11:52 44° 221° (SW) 688 2.9 -12.6°
Drops below altitude 10° 10:15:31 10° 148° (SSE) 1,733 5.4 -12.1°
Sets 10:17:51 0° 142° (SE) 2,678 6.5 -11.7°
